Content
SEND FEEDBACK

Daily
Averages
Monthly
Summary
Mauritania

NOUADHIBOU, MAURITANIA


Home > Africa > Mauritania
Elevation: 10 feet     Latitude: 20 56N     Longitude: 017 02W

WEATHER
 
SELECT A DAY
Number of Records: 120,325;   Date Range: 7/1/96 - 9/30/14
 
SHARE

PRINT THIS DATA

[ ← Previous Day ]
WEATHER ALMANAC - JULY 22, 2014
[ Next Day → ]
[ °C ]   °F
Weather ElementAverageHighLow
Temperature71.7 °F82.4 °F (5:00 pm)68 °F (3:00 am)
Dewpoint63.4 °F65 °F (12:00 am)60.8 °F (11:00 pm)
Humidity74.7 %88 % (3:00 am)51 % (12:00 pm)
Barometer29.89 in29.94 in (12:00 am)29.86 in (8:53 am)
Wind Speed20.4 mph25.3 mph (6:00 pm)
Wind Gust35.7 mph (7:00 pm)
Weather ElementAverage
Visibility2.9 mi
Wind DirectionNNW (332.9 °)

Weather ElementTotal
Precipitation---
Cooling Degree Days10.2 (Base 65)
Growing Degree Days25.2 (Base 50)
Averaged from 38 records on July 22, 2014
WEATHER CONDITIONS BREAKOUT
WIND DIRECTION BREAKOUT
WEATHER BY HOUR - JULY 22, 2014
[ °C ]   °F
Local TimeTemperatureDewpointHumidityBarometerVisibilityWind DirectionWind SpeedGust SpeedPrecipitationEventsConditions
12:00 AM70.0 °F65.0 °F81 %29.92 in5.0 miNNW (340°)18.4 mphScattered Clouds
12:00 AM69.8 °F64.4 °F83 %29.89 in3.7 miNNW (330°)19.6 mphLow Drifting Sand
1:00 AM69.8 °F64.4 °F83 %29.89 in3.7 miNNW (330°)19.6 mph31.1 mphLow Drifting Sand
2:00 AM68.0 °F64.4 °F88 %29.86 in3.7 miNNW (330°)17.3 mphLow Drifting Sand
3:00 AM69.0 °F65.0 °F82 %29.88 in5.0 miNNW (340°)16.1 mph
3:00 AM69.8 °F62.6 °F78 %29.86 in5.0 miNNW (330°)16.1 mphPartly Cloudy
4:00 AM68.0 °F62.6 °F83 %29.86 in5.0 miNNW (330°)15.0 mphPartly Cloudy
5:00 AM68.0 °F62.6 °F83 %29.86 in5.0 miNNW (330°)15.0 mphScattered Clouds
6:00 AM68.0 °F62.6 °F83 %29.86 in5.0 miNNW (340°)18.4 mphScattered Clouds
6:00 AM68.0 °F65.0 °F87 %29.88 in5.0 miNNW (340°)17.3 mphScattered Clouds
7:00 AM68.0 °F64.4 °F88 %29.89 in5.0 miNNW (340°)20.7 mphScattered Clouds
8:00 AM68.0 °F62.6 °F83 %29.89 in3.7 miNNW (340°)21.9 mph
9:00 AM72.0 °F64.0 °F68 %29.91 in2.0 miNorth (350°)23.0 mphBlowing Sand
9:00 AM71.6 °F62.6 °F73 %29.89 in3.7 miNNW (340°)21.9 mph
9:02 AM71.6 °F62.6 °F73 %29.89 in2.5 miNNW (340°)24.2 mphLow Drifting Sand
9:37 AM73.4 °F60.8 °F65 %29.89 in1.2 miNNW (340°)24.2 mphLow Drifting Sand
10:00 AM75.2 °F62.6 °F65 %29.89 in1.2 miNNW (340°)23.0 mph35.7 mphLow Drifting Sand
11:00 AM78.8 °F62.6 °F57 %29.92 in1.2 miNorth (360°)25.3 mphLow Drifting Sand
12:00 PM82.4 °F62.6 °F51 %29.92 in1.2 miNorth (360°)21.9 mphLow Drifting Sand
12:00 PM79.0 °F65.0 °F52 %29.94 in2.0 miNNW (340°)18.4 mphWidespread Dust
1:00 PM77.0 °F62.6 °F61 %29.92 in1.2 miNW (320°)17.3 mphLow Drifting Sand
2:00 PM75.2 °F62.6 °F65 %29.92 in1.2 miNW (310°)17.3 mphWidespread Dust
2:21 PM75.2 °F62.6 °F65 %29.89 in2.5 miNW (310°)19.6 mphLow Drifting Sand
3:00 PM73.4 °F62.6 °F69 %29.89 in2.5 miNW (310°)21.9 mphLow Drifting Sand
3:00 PM74.0 °F64.0 °F63 %29.91 in2.0 miNW (310°)20.7 mphWidespread Dust
3:51 PM73.4 °F62.6 °F69 %29.86 in1.2 miNW (320°)25.3 mphLow Drifting Sand
4:00 PM73.4 °F62.6 °F69 %29.86 in1.2 miNW (320°)25.3 mphLow Drifting Sand
5:00 PM71.6 °F62.6 °F73 %29.86 in1.2 miNW (320°)24.2 mphLow Drifting Sand
6:00 PM71.6 °F64.4 °F78 %29.86 in1.2 miNW (320°)23.0 mph34.5 mphLow Drifting Sand
6:00 PM72.0 °F65.0 °F71 %29.87 in1.0 miNNW (330°)24.2 mphBlowing Sand
7:00 PM69.8 °F62.6 °F78 %29.86 in1.2 miNNW (330°)23.0 mph35.7 mphLow Drifting Sand
7:52 PM69.8 °F62.6 °F78 %29.89 in2.5 miNNW (340°)20.7 mphLow Drifting Sand
8:00 PM69.8 °F62.6 °F78 %29.89 in2.5 miNNW (330°)20.7 mphLow Drifting Sand
9:00 PM69.0 °F65.0 °F84 %29.92 in5.0 miNNW (340°)17.3 mph
9:00 PM69.8 °F64.4 °F83 %29.89 in2.5 miNNW (330°)19.6 mphLow Drifting Sand
9:54 PM69.8 °F64.4 °F83 %29.92 in3.7 miNNW (340°)18.4 mphLow Drifting Sand
10:00 PM69.8 °F64.4 °F83 %29.92 in3.7 miNNW (340°)18.4 mphLow Drifting Sand
11:00 PM69.8 °F64.4 °F83 %29.92 in3.7 miNNW (340°)19.6 mphLow Drifting Sand
Hourly data recorded from GQPP, located miles away from Nouadhibou, Mauritania







STORIES FROM OUR PARTNERS